• In Czech Republic
  • List of Countries
  • For 7 days
  • Water Temperature
  • Satellite Maps
  • Weather Map
  • Weather Widgets
  • user-avatar
    Login

    Hourly Weather Siderno Marina

    Today, 19 January, Friday

    Time Temperature Precipitation Wind Pressure Humidity
    00:00 +10°C° 0 mm 4 mps 763 mmHg 66%
    01:00 +10°C° 0 mm 4 mps 763 mmHg 70%
    02:00 +10°C° 0 mm 4 mps 763 mmHg 74%
    03:00 +10°C° 0 mm 4 mps 762 mmHg 78%
    04:00 +10°C° 0 mm 3 mps 762 mmHg 82%
    05:00 +10°C° 0 mm 3 mps 762 mmHg 83%
    06:00 +10°C° 0 mm 3 mps 762 mmHg 83%
    07:00 +9°C° 0 mm 3 mps 762 mmHg 83%
    08:00 +11°C° 0 mm 3 mps 762 mmHg 77%
    09:00 +12°C° 0 mm 3 mps 762 mmHg 70%
    10:00 +14°C° 0 mm 3 mps 762 mmHg 64%
    11:00 +14°C° 0 mm 3 mps 761 mmHg 62%
    12:00 +16°C° 0 mm 3 mps 761 mmHg 59%
    13:00 +17°C° 0 mm 4 mps 760 mmHg 57%
    14:00 +15°C° 0 mm 4 mps 760 mmHg 60%
    15:00 +15°C° 0 mm 4 mps 760 mmHg 64%
    16:00 +14°C° 0 mm 4 mps 760 mmHg 68%
    17:00 +13°C° 0 mm 4 mps 760 mmHg 73%
    18:00 +12°C° 0 mm 4 mps 760 mmHg 78%
    19:00 +11°C° 0 mm 4 mps 759 mmHg 83%
    20:00 +11°C° 0 mm 4 mps 759 mmHg 82%
    21:00 +10°C° 0 mm 4 mps 759 mmHg 81%
    22:00 +10°C° 0 mm 4 mps 759 mmHg 80%
    23:00 +10°C° 0 mm 4 mps 759 mmHg 80%

    Tomorrow, 20 January, Saturday

    Time Temperature Precipitation Wind Pressure Humidity
    00:00 +10°C° 0 mm 4 mps 759 mmHg 80%
    01:00 +10°C° 0 mm 4 mps 759 mmHg 81%
    02:00 +11°C° 0 mm 3 mps 759 mmHg 82%
    03:00 +11°C° 0 mm 3 mps 759 mmHg 83%
    04:00 +11°C° 0 mm 3 mps 759 mmHg 83%
    05:00 +11°C° 0 mm 3 mps 759 mmHg 85%
    06:00 +11°C° 0 mm 3 mps 759 mmHg 86%
    07:00 +11°C° 0 mm 3 mps 758 mmHg 87%
    08:00 +12°C° 0 mm 3 mps 759 mmHg 81%
    09:00 +13°C° 0 mm 3 mps 759 mmHg 75%
    10:00 +14°C° 0 mm 3 mps 759 mmHg 70%
    11:00 +14°C° 0 mm 3 mps 758 mmHg 70%
    12:00 +14°C° 0 mm 3 mps 758 mmHg 70%
    13:00 +16°C° 0 mm 3 mps 758 mmHg 70%
    14:00 +14°C° 0 mm 3 mps 758 mmHg 70%
    15:00 +14°C° 0 mm 3 mps 758 mmHg 70%
    16:00 +13°C° 0 mm 3 mps 758 mmHg 71%
    17:00 +13°C° 0 mm 4 mps 758 mmHg 75%
    18:00 +12°C° 0 mm 4 mps 758 mmHg 79%
    19:00 +11°C° 0 mm 4 mps 758 mmHg 83%
    20:00 +11°C° 0 mm 4 mps 758 mmHg 84%
    21:00 +11°C° 0 mm 4 mps 759 mmHg 85%
    22:00 +11°C° 0 mm 4 mps 759 mmHg 86%
    23:00 +11°C° 0 mm 4 mps 758 mmHg 87%

    Day after tomorrow, 21 January, Sunday

    Time Temperature Precipitation Wind Pressure Humidity
    00:00 +10°C° 0 mm 4 mps 758 mmHg 87%
    01:00 +10°C° 0 mm 4 mps 758 mmHg 88%
    02:00 +11°C° 0 mm 4 mps 758 mmHg 86%
    03:00 +11°C° 0 mm 4 mps 757 mmHg 84%
    04:00 +10°C° 0 mm 5 mps 757 mmHg 82%
    05:00 +11°C° 0.1 mm 4 mps 757 mmHg 82%
    06:00 +11°C° 0.1 mm 4 mps 756 mmHg 82%
    07:00 +11°C° 0.1 mm 4 mps 756 mmHg 82%
    08:00 +12°C° 0.1 mm 5 mps 756 mmHg 81%
    09:00 +12°C° 0.1 mm 5 mps 756 mmHg 79%
    10:00 +13°C° 0.1 mm 5 mps 755 mmHg 77%
    11:00 +13°C° 0.5 mm 6 mps 755 mmHg 79%
    12:00 +13°C° 0.5 mm 6 mps 754 mmHg 81%
    13:00 +12°C° 0.5 mm 7 mps 754 mmHg 83%
    14:00 +13°C° 0.3 mm 6 mps 754 mmHg 83%
    15:00 +14°C° 0.3 mm 6 mps 754 mmHg 83%
    16:00 +14°C° 0.3 mm 6 mps 754 mmHg 83%
    17:00 +13°C° 0.1 mm 5 mps 754 mmHg 85%
    18:00 +13°C° 0.1 mm 4 mps 755 mmHg 88%
    19:00 +12°C° 0.1 mm 4 mps 756 mmHg 90%
    20:00 +12°C° 0 mm 4 mps 756 mmHg 90%
    21:00 +12°C° 0 mm 3 mps 757 mmHg 91%
    22:00 +12°C° 0 mm 3 mps 758 mmHg 91%
    23:00 +12°C° 0 mm 3 mps 758 mmHg 91%

    22 January, Monday

    Time Temperature Precipitation Wind Pressure Humidity
    00:00 +12°C° 0 mm 3 mps 758 mmHg 91%
    01:00 +12°C° 0 mm 3 mps 758 mmHg 91%
    02:00 +12°C° 0 mm 3 mps 758 mmHg 91%
    03:00 +12°C° 0 mm 3 mps 758 mmHg 90%
    04:00 +12°C° 0 mm 3 mps 758 mmHg 90%
    05:00 +12°C° 0 mm 3 mps 759 mmHg 90%
    06:00 +12°C° 0 mm 3 mps 759 mmHg 90%
    07:00 +12°C° 0 mm 3 mps 760 mmHg 91%
    08:00 +13°C° 0.1 mm 3 mps 760 mmHg 88%
    09:00 +13°C° 0.1 mm 3 mps 761 mmHg 85%
    10:00 +14°C° 0.1 mm 4 mps 761 mmHg 83%
    11:00 +14°C° 0 mm 4 mps 761 mmHg 80%
    12:00 +15°C° 0 mm 4 mps 761 mmHg 77%
    13:00 +15°C° 0 mm 4 mps 761 mmHg 74%
    14:00 +15°C° 0 mm 4 mps 761 mmHg 76%
    15:00 +14°C° 0 mm 3 mps 761 mmHg 78%
    16:00 +14°C° 0 mm 3 mps 761 mmHg 80%
    17:00 +13°C° 0 mm 3 mps 762 mmHg 82%
    18:00 +13°C° 0 mm 3 mps 762 mmHg 85%
    19:00 +13°C° 0 mm 2 mps 762 mmHg 87%
    20:00 +13°C° 0 mm 2 mps 763 mmHg 87%
    21:00 +13°C° 0 mm 2 mps 763 mmHg 86%
    22:00 +13°C° 0 mm 2 mps 763 mmHg 86%
    23:00 +13°C° 0 mm 2 mps 763 mmHg 86%

    23 January, Tuesday

    Time Temperature Precipitation Wind Pressure Humidity
    00:00 +12°C° 0 mm 2 mps 763 mmHg 87%
    01:00 +12°C° 0 mm 1 mps 763 mmHg 87%
    02:00 +12°C° 0 mm 2 mps 762 mmHg 88%
    03:00 +12°C° 0 mm 2 mps 762 mmHg 89%
    04:00 +12°C° 0 mm 2 mps 762 mmHg 90%
    05:00 +12°C° 0 mm 2 mps 762 mmHg 90%
    06:00 +12°C° 0 mm 2 mps 763 mmHg 91%
    07:00 +12°C° 0 mm 2 mps 763 mmHg 91%
    08:00 +14°C° 0 mm 2 mps 763 mmHg 87%
    09:00 +15°C° 0 mm 2 mps 763 mmHg 82%
    10:00 +16°C° 0 mm 2 mps 764 mmHg 78%
    11:00 +16°C° 0 mm 2 mps 763 mmHg 77%
    12:00 +16°C° 0 mm 2 mps 763 mmHg 76%
    13:00 +17°C° 0 mm 2 mps 763 mmHg 75%
    14:00 +16°C° 0 mm 2 mps 763 mmHg 77%
    15:00 +16°C° 0 mm 2 mps 763 mmHg 78%
    16:00 +16°C° 0 mm 2 mps 764 mmHg 80%
    17:00 +15°C° 0.2 mm 2 mps 764 mmHg 84%
    18:00 +13°C° 0.2 mm 3 mps 765 mmHg 87%
    19:00 +13°C° 0.2 mm 3 mps 765 mmHg 90%
    20:00 +12°C° 0.2 mm 3 mps 766 mmHg 90%
    21:00 +12°C° 0.2 mm 4 mps 766 mmHg 90%
    22:00 +12°C° 0.2 mm 4 mps 767 mmHg 89%
    23:00 +11°C° 0.1 mm 4 mps 767 mmHg 88%

    24 January, Wednesday

    Time Temperature Precipitation Wind Pressure Humidity
    00:00 +10°C° 0.1 mm 5 mps 767 mmHg 86%
    01:00 +9°C° 0.1 mm 5 mps 768 mmHg 85%
    02:00 +9°C° 0 mm 5 mps 768 mmHg 84%
    03:00 +9°C° 0 mm 5 mps 768 mmHg 83%
    04:00 +8°C° 0 mm 5 mps 768 mmHg 82%
    05:00 +8°C° 0 mm 5 mps 768 mmHg 82%
    06:00 +8°C° 0 mm 5 mps 769 mmHg 82%
    07:00 +8°C° 0 mm 5 mps 769 mmHg 82%
    08:00 +10°C° 0 mm 5 mps 770 mmHg 77%
    09:00 +12°C° 0 mm 5 mps 770 mmHg 73%
    10:00 +13°C° 0 mm 5 mps 771 mmHg 68%
    11:00 +14°C° 0 mm 4 mps 771 mmHg 66%
    12:00 +15°C° 0 mm 4 mps 771 mmHg 63%
    13:00 +17°C° 0 mm 4 mps 771 mmHg 61%
    14:00 +15°C° 0 mm 4 mps 771 mmHg 65%
    15:00 +14°C° 0 mm 4 mps 771 mmHg 68%
    16:00 +14°C° 0 mm 4 mps 771 mmHg 71%
    17:00 +13°C° 0 mm 4 mps 771 mmHg 75%
    18:00 +12°C° 0 mm 4 mps 772 mmHg 79%
    19:00 +11°C° 0 mm 4 mps 772 mmHg 83%
    20:00 +11°C° 0 mm 3 mps 772 mmHg 84%
    21:00 +11°C° 0 mm 3 mps 772 mmHg 86%
    22:00 +10°C° 0 mm 3 mps 773 mmHg 87%
    23:00 +10°C° 0 mm 3 mps 773 mmHg 87%
    Show more